FW5399 Weather Reports


Display with metric or nautical units.
time (UTC)temp
F
wind
direction
speed
MPH
gust
MPH
rain 1hr
in
rain 24hr
in
rain mn
in
humidity
%
barometer
mb
20260508025003 66 211 4.0 15.0 0.00 0.02 0.02 86 1015.0
20260508024457 66 127 4.0 15.0 0.00 0.02 0.02 85 1014.8
20260508024400 66 127 3.0 8.0 0.00 0.02 0.02 85 1015.0
20260508023445 66 197 4.0 10.0 0.00 0.02 0.02 85 1015.2
20260508022947 66 169 3.0 10.0 0.00 0.02 0.02 85 1015.4
20260508022442 66 170 3.0 10.0 0.00 0.02 0.02 86 1015.5
20260508021942 66 121 3.0 10.0 0.00 0.02 0.02 87 1015.9
20260508021844 66 193 3.0 9.0 0.00 0.02 0.02 89 1015.9
20260508020942 66 158 3.0 9.0 0.00 0.02 0.02 89 1015.9
20260508020440 66 194 3.0 7.0 0.00 0.02 0.02 89 1015.7
20260508015948 66 202 3.0 7.0 0.00 0.02 0.02 89 1015.7
20260508015834 66 170 3.0 8.0 0.00 0.02 0.02 89 1015.9
20260508014939 66 154 3.0 8.0 0.00 0.02 0.02 88 1016.0
20260508014843 66 130 3.0 8.0 0.00 0.02 0.02 88 1015.9
20260508013936 66 170 2.0 6.0 0.00 0.02 0.02 87 1015.9
20260508013435 65 166 2.0 7.0 0.00 0.02 0.02 88 1016.0
20260508012937 65 185 3.0 7.0 0.00 0.02 0.02 88 1016.1
20260508012436 65 199 3.0 9.0 0.00 0.02 0.02 88 1016.1
20260508011933 65 154 2.0 9.0 0.00 0.02 0.02 88 1016.1
20260508011835 65 189 3.0 8.0 0.00 0.02 0.02 88 1016.3
20260508010931 65 101 3.0 8.0 0.00 0.02 0.02 88 1016.4
20260508010432 65 119 3.0 9.0 0.00 0.02 0.02 89 1016.7
20260508005932 65 183 3.0 9.0 0.00 0.02 0.02 89 1016.5
20260508005425 65 170 2.0 7.0 0.00 0.02 0.02 89 1016.8
20260508004920 65 191 2.0 8.0 0.00 0.02 0.02 89 1016.9
20260508004412 65 144 3.0 9.0 0.00 0.02 0.02 89 1017.0
20260508003907 65 80 2.0 9.0 0.00 0.02 0.02 89 1017.0
20260508003402 65 154 3.0 9.0 0.00 0.02 0.02 89 1016.9
20260508002905 65 152 3.0 9.0 0.00 0.02 0.02 90 1017.0
20260508002359 65 174 3.0 9.0 0.00 0.02 0.02 91 1017.2
20260508001857 64 158 3.0 8.0 0.00 0.02 0.02 92 1017.5
20260508001806 64 142 3.0 8.0 0.00 0.02 0.02 92 1017.8
20260508000858 64 169 3.0 7.0 0.00 0.02 0.02 92 1017.8
20260508000357 64 167 2.0 7.0 0.00 0.02 0.02 91 1018.0
20260507235855 64 227 3.0 10.0 0.00 0.02 0.02 91 1018.0
20260507235353 64 175 3.0 10.0 0.00 0.02 0.02 90 1017.9
20260507235252 64 201 2.0 8.0 0.00 0.02 0.02 91 1018.0
20260507234353 64 136 3.0 8.0 0.00 0.02 0.02 92 1018.0
20260507234253 64 132 3.0 9.0 0.00 0.02 0.02 92 1018.5
20260507233352 63 148 3.0 9.0 0.00 0.02 0.02 92 1018.5
20260507233311 63 178 4.0 11.0 0.00 0.02 0.02 91 1018.6
20260507232353 64 154 3.0 11.0 0.00 0.02 0.02 88 1018.6
20260507231857 65 9 3.0 9.0 0.00 0.02 0.02 86 1018.4
20260507231357 65 150 4.0 11.0 0.00 0.02 0.02 86 1018.2
20260507230856 65 9 3.0 11.0 0.00 0.02 0.02 85 1018.2
20260507230804 65 120 2.0 7.0 0.00 0.02 0.02 85 1018.1
20260507225855 65 158 3.0 7.0 0.00 0.02 0.02 86 1018.3
20260507225355 65 158 3.0 10.0 0.00 0.02 0.02 87 1018.3
20260507224856 65 197 4.0 11.0 0.00 0.02 0.02 88 1018.4
20260507224355 65 139 4.0 11.0 0.00 0.02 0.02 88 1018.4
20260507223853 65 149 4.0 9.0 0.00 0.02 0.02 89 1018.4
20260507223354 65 338 3.0 8.0 0.00 0.02 0.02 90 1018.4
20260507222853 65 139 3.0 9.0 0.00 0.02 0.02 89 1018.3
20260507222351 65 127 3.0 9.0 0.00 0.02 0.02 90 1018.5
20260507221847 65 154 3.0 7.0 0.00 0.02 0.02 89 1018.5
20260507221347 65 142 2.0 7.0 0.00 0.02 0.02 89 1018.7
20260507220845 65 191 2.0 7.0 0.00 0.02 0.02 89 1018.7
20260507220759 65 185 3.0 9.0 0.00 0.02 0.02 89 1018.8
20260507215845 65 147 4.0 9.0 0.00 0.02 0.02 89 1018.8
20260507215345 65 189 4.0 11.0 0.00 0.02 0.02 89 1018.8
20260507214846 65 73 4.0 13.0 0.00 0.02 0.02 88 1018.7
20260507214352 66 255 4.0 13.0 0.00 0.02 0.02 87 1018.9
20260507213851 66 171 3.0 10.0 0.00 0.02 0.02 88 1018.9
20260507213345 66 153 4.0 11.0 0.00 0.02 0.02 88 1018.9
20260507212837 65 179 3.0 10.0 0.00 0.02 0.02 89 1018.8
20260507212804 65 181 2.0 8.0 0.00 0.02 0.02 90 1018.6
20260507212220 65 163 2.0 8.0 0.00 0.02 0.02 92 1018.7
20260507211319 64 184 1.0 7.0 0.00 0.02 0.02 94 1019.2
20260507210814 64 174 1.0 4.0 0.00 0.02 0.02 95 1019.4
20260507210308 63 184 1.0 5.0 0.00 0.02 0.02 96 1019.5
20260507205801 63 169 1.0 5.0 0.00 0.02 0.02 96 1019.5
20260507205258 62 22 1.0 5.0 0.00 0.02 0.02 97 1019.4
20260507204749 62 161 1.0 5.0 0.00 0.02 0.02 98 1019.5
20260507204243 62 160 1.0 3.0 0.00 0.02 0.02 98 1019.3
20260507203738 62 154 1.0 3.0 0.00 0.02 0.02 98 1019.4
20260507203232 62 184 1.0 5.0 0.00 0.02 0.02 98 1019.4
20260507202728 62 144 1.0 5.0 0.00 0.02 0.02 98 1019.2
20260507202219 62 148 1.0 5.0 0.00 0.02 0.02 98 1019.3
20260507201714 62 234 0.0 5.0 0.00 0.02 0.02 99 1019.5
20260507201207 62 186 1.0 4.0 0.00 0.02 0.02 99 1019.4
20260507200702 62 142 1.0 6.0 0.00 0.02 0.02 100 1019.5
20260507200157 61 143 2.0 6.0 0.00 0.02 0.02 100 1019.3
20260507195650 61 190 1.0 5.0 0.00 0.02 0.02 100 1019.4
20260507195144 61 166 1.0 4.0 0.00 0.02 0.02 100 1019.4
20260507194640 61 154 1.0 4.0 0.00 0.02 0.02 100 1019.4
20260507194131 61 101 1.0 4.0 0.00 0.02 0.02 100 1019.6
20260507193627 60 137 1.0 3.0 0.00 0.02 0.02 100 1019.5
20260507193119 60 144 1.0 3.0 0.00 0.02 0.02 100 1019.3
20260507193003 60 154 0.0 3.0 0.00 0.02 0.02 100 1019.3
20260507192113 60 130 0.0 2.0 0.00 0.02 0.02 100 1019.4
20260507191558 60 178 0.0 3.0 0.00 0.03 0.02 100 1019.4
20260507191050 60 122 0.0 3.0 0.00 0.03 0.02 100 1019.5
20260507190549 59 117 0.0 2.0 0.00 0.04 0.02 100 1019.6
20260507190039 58 61 0.0 1.0 0.00 0.04 0.02 100 1019.6
20260507185537 58 229 0.0 0.0 0.00 0.04 0.02 100 1019.5
20260507185028 57 229 0.0 0.0 0.00 0.04 0.02 100 1019.4
20260507184650 58 229 0.0 0.0 0.00 0.04 0.02 100 1019.6
20260507183852 58 229 0.0 0.0 0.00 0.04 0.02 100 1019.7
20260507183159 58 229 0.0 0.0 0.00 0.05 0.02 100 1019.7
20260507182007 58 229 0.0 0.0 0.00 0.05 0.02 100 1019.7
20260507181508 58 229 0.0 0.0 0.00 0.05 0.02 100 1019.7
20260507181007 58 229 0.0 0.0 0.00 0.05 0.02 100 1019.7
20260507180505 58 229 0.0 0.0 0.00 0.05 0.02 100 1019.7
20260507180140 58 229 0.0 0.0 0.00 0.05 0.02 100 1019.8
20260507175004 58 229 0.0 0.0 0.00 0.05 0.02 100 1019.7
20260507174509 58 229 0.0 0.0 0.00 0.05 0.02 100 1019.6
20260507174007 58 229 0.0 0.0 0.00 0.05 0.02 100 1019.8
20260507173505 58 229 0.0 0.0 0.00 0.05 0.02 100 1019.8
20260507173000 58 229 0.0 0.0 0.00 0.05 0.02 100 1019.8
20260507172504 58 229 0.0 0.0 0.00 0.05 0.02 100 1019.8
20260507172002 58 229 0.0 0.0 0.00 0.05 0.02 100 1019.8
20260507171501 58 229 0.0 0.0 0.00 0.05 0.02 100 1019.8
20260507171002 58 229 0.0 0.0 0.00 0.05 0.02 100 1019.8
20260507170501 58 217 0.0 0.0 0.00 0.05 0.02 100 1019.9
20260507170000 58 217 0.0 0.0 0.00 0.05 0.02 100 1019.9
20260507165500 58 217 0.0 0.0 0.00 0.05 0.02 100 1019.7
20260507165001 58 217 0.0 0.0 0.00 0.06 0.02 100 1019.8
20260507164502 58 217 0.0 0.0 0.00 0.06 0.02 100 1019.8
20260507164002 58 217 0.0 0.0 0.00 0.06 0.02 100 1019.9
20260507163502 57 217 0.0 1.0 0.00 0.06 0.02 100 1019.9
20260507163001 57 217 0.0 1.0 0.00 0.06 0.02 100 1019.9
20260507162504 57 127 0.0 0.0 0.00 0.06 0.02 100 1019.9
20260507162001 57 127 0.0 0.0 0.00 0.06 0.02 100 1019.9
20260507161500 57 127 0.0 0.0 0.00 0.06 0.02 100 1020.1
20260507161001 56 127 0.0 0.0 0.00 0.06 0.02 100 1020.0
20260507160500 56 127 0.0 0.0 0.00 0.06 0.02 100 1020.0
20260507160001 56 127 0.0 0.0 0.00 0.06 0.02 100 1020.0
20260507155459 56 127 0.0 0.0 0.00 0.06 0.02 100 1020.1
20260507155424 56 127 0.0 0.0 0.00 0.06 0.02 100 1020.1
20260507154453 56 127 0.0 0.0 0.00 0.06 0.02 100 1020.3
20260507153952 56 127 0.0 0.0 0.01 0.06 0.02 100 1020.2
20260507153449 56 127 0.0 0.0 0.01 0.06 0.02 100 1020.4
20260507152942 56 127 0.0 0.0 0.01 0.06 0.02 100 1020.4
20260507152437 56 127 0.0 0.0 0.02 0.06 0.02 100 1020.5
20260507151930 56 127 0.0 0.0 0.02 0.06 0.02 100 1020.5
20260507151425 56 127 0.0 0.0 0.02 0.06 0.02 100 1020.7
20260507150918 56 127 0.0 0.0 0.02 0.06 0.02 100 1020.7
20260507150413 56 127 0.0 0.0 0.02 0.06 0.02 100 1020.7
20260507145907 56 127 0.0 0.0 0.02 0.06 0.02 100 1020.8
20260507145400 56 127 0.0 0.0 0.02 0.06 0.02 100 1020.9
20260507144854 56 127 0.0 0.0 0.02 0.06 0.02 100 1021.1
20260507144349 56 127 0.0 0.0 0.02 0.06 0.02 100 1021.1
20260507143843 56 127 0.0 0.0 0.01 0.05 0.01 100 1021.3
20260507143725 56 127 0.0 0.0 0.01 0.05 0.01 100 1021.3
20260507142830 56 127 0.0 0.0 0.00 0.04 0.01 100 1021.2
20260507142325 56 127 0.0 0.0 0.00 0.04 0.00 100 1021.3
20260507141819 56 127 0.0 0.0 0.00 0.04 0.00 100 1021.4
20260507141312 56 127 0.0 0.0 0.00 0.04 0.00 100 1021.5
20260507140807 56 127 0.0 0.0 0.00 0.04 0.00 100 1021.6
20260507140300 56 127 0.0 0.0 0.00 0.04 0.00 100 1021.6
20260507135755 55 127 0.0 0.0 0.00 0.04 0.00 100 1021.6
20260507135253 55 127 0.0 0.0 0.00 0.04 0.00 100 1021.6
20260507134742 55 127 0.0 0.0 0.00 0.04 0.00 100 1021.6
20260507134237 55 127 0.0 0.0 0.00 0.04 0.00 100 1021.8
20260507133731 56 127 0.0 0.0 0.00 0.04 0.00 99 1021.8
20260507133224 56 127 0.0 0.0 0.00 0.04 0.00 99 1021.8
20260507132718 56 127 0.0 0.0 0.00 0.04 0.00 100 1021.7
20260507132212 56 127 0.0 0.0 0.00 0.04 0.00 100 1021.9
20260507131707 56 127 0.0 0.0 0.00 0.04 0.00 100 1021.8
20260507131200 56 127 0.0 0.0 0.00 0.04 0.00 100 1021.9
20260507130657 56 127 0.0 0.0 0.00 0.04 0.00 100 1021.9
20260507130148 56 127 0.0 0.0 0.00 0.04 0.00 100 1022.0
20260507125649 56 127 0.0 0.0 0.00 0.04 0.00 100 1022.0
20260507125143 56 127 0.0 0.0 0.00 0.04 0.00 100 1022.2
20260507124639 56 127 0.0 0.0 0.00 0.04 0.00 100 1022.3
20260507124138 56 127 0.0 0.0 0.00 0.04 0.00 100 1022.3
20260507123635 56 127 0.0 0.0 0.00 0.04 0.00 100 1022.3
20260507123134 56 127 0.0 0.0 0.00 0.04 0.00 100 1022.4
20260507122634 56 127 0.0 0.0 0.00 0.04 0.00 100 1022.5
20260507122134 56 127 0.0 0.0 0.00 0.04 0.00 100 1022.5
20260507121630 56 127 0.0 0.0 0.00 0.04 0.00 100 1022.8
20260507121133 56 127 0.0 0.0 0.00 0.04 0.00 100 1022.7
20260507120632 56 127 0.0 0.0 0.00 0.04 0.00 100 1022.7
20260507120128 56 127 0.0 0.0 0.00 0.04 0.00 100 1022.7
20260507120022 56 127 0.0 0.0 0.00 0.04 0.04 100 1022.7
20260507115132 56 127 0.0 0.0 0.00 0.04 0.04 100 1022.7
20260507114626 56 127 0.0 0.0 0.00 0.04 0.04 100 1022.8
20260507114124 56 127 0.0 0.0 0.00 0.04 0.04 100 1022.7
20260507113622 56 127 0.0 0.0 0.00 0.04 0.04 100 1022.8
20260507113123 56 127 0.0 0.0 0.00 0.04 0.04 100 1022.8
20260507112620 56 127 0.0 0.0 0.00 0.04 0.04 100 1022.9
20260507112119 56 127 0.0 0.0 0.00 0.04 0.04 100 1022.9
20260507111618 56 127 0.0 0.0 0.00 0.04 0.04 100 1022.9
20260507111113 56 127 0.0 0.0 0.00 0.04 0.04 100 1022.9
20260507110607 56 127 0.0 0.0 0.00 0.04 0.04 100 1022.9
20260507105554 56 127 0.0 0.0 0.00 0.04 0.04 99 1023.0
20260507105048 56 127 0.0 0.0 0.00 0.04 0.04 99 1023.1
20260507104542 56 127 0.0 0.0 0.00 0.04 0.04 99 1023.3
20260507104036 56 127 0.0 0.0 0.00 0.04 0.04 99 1023.3
20260507103534 56 127 0.0 0.0 0.00 0.04 0.04 99 1023.3
20260507103024 56 127 0.0 0.0 0.00 0.04 0.04 99 1023.2
20260507102519 56 127 0.0 0.0 0.00 0.04 0.04 99 1023.3
20260507102013 56 127 0.0 0.0 0.00 0.04 0.04 99 1023.2
20260507101507 56 127 0.0 0.0 0.00 0.04 0.04 99 1023.3
20260507101002 56 127 0.0 0.0 0.00 0.04 0.04 99 1023.2
20260507100453 56 127 0.0 0.0 0.00 0.04 0.04 99 1023.2
20260507095948 56 127 0.0 0.0 0.00 0.04 0.04 99 1023.4
20260507095443 56 127 0.0 0.0 0.00 0.04 0.04 99 1023.5
20260507094937 55 127 0.0 0.0 0.00 0.04 0.04 99 1023.5
20260507094431 55 127 0.0 0.0 0.00 0.04 0.04 99 1023.6
20260507093924 55 127 0.0 0.0 0.00 0.04 0.04 99 1023.6
20260507093811 55 127 0.0 0.0 0.00 0.04 0.04 99 1023.6
20260507092913 55 127 0.0 0.0 0.00 0.04 0.04 99 1023.6
20260507092409 55 127 0.0 0.0 0.00 0.04 0.04 99 1023.6
20260507092402 55 127 0.0 0.0 0.00 0.04 0.04 99 1023.6
20260507091355 55 127 0.0 0.0 0.00 0.04 0.04 99 1023.6
20260507091241 54 127 0.0 0.0 0.00 0.04 0.04 99 1023.6
20260507090342 54 127 0.0 0.0 0.00 0.04 0.04 99 1023.5
20260507085836 54 127 0.0 0.0 0.00 0.04 0.04 99 1023.5
20260507085332 53 127 0.0 0.0 0.00 0.04 0.04 99 1023.5
20260507085243 53 127 0.0 0.0 0.00 0.04 0.04 98 1023.3
20260507084318 53 127 0.0 0.0 0.00 0.04 0.04 98 1023.3
20260507084206 53 127 0.0 0.0 0.00 0.04 0.04 97 1023.3
20260507083312 54 127 0.0 0.0 0.00 0.04 0.04 97 1023.4
20260507082811 54 127 0.0 0.0 0.00 0.04 0.04 97 1023.3
20260507082711 55 127 0.0 0.0 0.00 0.04 0.04 97 1023.4
20260507081811 55 127 0.0 0.0 0.00 0.04 0.04 97 1023.3
20260507081312 55 127 0.0 0.0 0.00 0.04 0.04 98 1023.5
20260507080815 56 127 0.0 0.0 0.00 0.04 0.04 98 1023.6
20260507080328 56 127 0.0 0.0 0.00 0.04 0.04 98 1023.7
20260507075814 56 127 0.0 0.0 0.00 0.04 0.04 98 1023.7
20260507075451 56 127 0.0 0.0 0.00 0.04 0.04 98 1023.6
20260507075402 56 127 0.0 0.0 0.00 0.04 0.04 98 1023.5
20260507073810 56 126 0.0 0.0 0.00 0.04 0.04 97 1023.5
20260507073311 56 126 0.0 0.0 0.00 0.04 0.04 97 1023.6
20260507072812 56 126 0.0 0.0 0.00 0.04 0.04 97 1023.5
20260507072312 56 126 0.0 0.0 0.00 0.04 0.04 97 1023.5
20260507071806 57 126 0.0 0.0 0.00 0.04 0.04 97 1023.5
20260507071308 57 126 0.0 0.0 0.00 0.04 0.04 97 1023.4
20260507070807 57 126 0.0 0.0 0.00 0.04 0.04 97 1023.4
20260507070309 58 126 0.0 0.0 0.00 0.04 0.04 97 1023.6
20260507070301 58 126 0.0 0.0 0.00 0.05 0.04 97 1023.6
20260507065306 58 126 0.0 0.0 0.00 0.05 0.04 97 1023.4
20260507064808 58 126 0.0 0.0 0.00 0.05 0.04 97 1023.5
20260507064307 58 126 0.0 0.0 0.00 0.05 0.04 97 1023.4
20260507063809 58 126 0.0 0.0 0.00 0.05 0.04 97 1023.4
20260507063307 58 126 0.0 0.0 0.00 0.05 0.04 97 1023.4
20260507062825 58 126 0.0 0.0 0.00 0.05 0.04 97 1023.4
20260507062313 58 126 0.0 0.0 0.00 0.05 0.04 96 1023.3
20260507061812 58 126 0.0 0.0 0.00 0.05 0.04 96 1023.3
20260507061313 58 126 0.0 0.0 0.00 0.05 0.04 96 1023.3
20260507060813 58 126 0.0 0.0 0.00 0.05 0.04 96 1023.3
20260507060304 58 126 0.0 0.0 0.00 0.05 0.04 95 1023.3
20260507055805 58 126 0.0 0.0 0.00 0.05 0.04 95 1023.3
20260507055704 58 126 0.0 0.0 0.00 0.05 0.04 94 1023.3
20260507054802 59 126 0.0 0.0 0.00 0.05 0.04 93 1023.3
20260507054726 59 126 0.0 0.0 0.00 0.05 0.04 93 1023.3
20260507054153 60 126 0.0 0.0 0.00 0.05 0.04 93 1023.4
20260507053650 60 126 0.0 0.0 0.00 0.05 0.04 92 1023.3
20260507052745 61 126 0.0 0.0 0.00 0.05 0.04 91 1023.4
20260507052239 61 126 0.0 0.0 0.00 0.05 0.04 91 1023.4
20260507051734 62 126 0.0 0.0 0.00 0.05 0.04 90 1023.3
20260507051643 62 126 0.0 0.0 0.00 0.05 0.04 89 1023.4
20260507051133 63 126 0.0 0.0 0.00 0.05 0.04 87 1023.3
20260507050215 63 126 0.0 0.0 0.00 0.05 0.04 86 1023.5
20260507050100 64 126 0.0 0.0 0.00 0.05 0.04 85 1023.5
20260507045202 64 126 0.0 4.0 0.00 0.05 0.04 84 1023.6
20260507044655 64 126 0.0 4.0 0.00 0.05 0.04 83 1023.5
20260507044149 64 145 0.0 3.0 0.00 0.06 0.04 83 1023.6
20260507043645 64 54 0.0 2.0 0.00 0.06 0.04 82 1023.7
20260507043137 64 190 0.0 3.0 0.00 0.06 0.04 82 1023.7
20260507042631 65 178 0.0 3.0 0.00 0.06 0.04 82 1023.8
20260507042125 65 284 0.0 2.0 0.00 0.06 0.04 81 1023.7
20260507041619 65 169 0.0 2.0 0.00 0.06 0.04 80 1023.7
20260507041246 65 191 0.0 3.0 0.00 0.06 0.04 80 1023.7
20260507035555 65 3 0.0 3.0 0.00 0.08 0.04 80 1023.9
20260507035049 65 181 1.0 4.0 0.00 0.08 0.04 80 1024.0
20260507034543 66 134 0.0 4.0 0.00 0.08 0.04 80 1024.1
20260507034037 66 13 0.0 2.0 0.00 0.08 0.04 79 1024.0
20260507033532 66 149 0.0 3.0 0.00 0.08 0.04 79 1024.0
20260507033025 66 24 1.0 6.0 0.00 0.08 0.04 79 1024.1
20260507032519 66 142 1.0 6.0 0.00 0.08 0.04 79 1024.1
20260507032012 66 142 1.0 4.0 0.00 0.08 0.04 78 1024.3
20260507031507 66 99 1.0 4.0 0.00 0.08 0.04 80 1024.3
20260507031002 67 14 1.0 4.0 0.00 0.08 0.04 79 1024.2
20260507030455 67 61 1.0 9.0 0.00 0.08 0.04 78 1024.3
20260507025950 67 28 1.0 9.0 0.00 0.08 0.04 78 1024.2
20260507025444 67 137 1.0 6.0 0.00 0.08 0.04 78 1024.2